USA 159 (DSP 21)

Last updated on Tue Oct 08 2024 00:02:37 GMT+0000 (Coordinated Universal Time)

1 26880U 01033A 24281.16299497 -.00000285 00000+0 00000+0 0 9999 2 26880 12.1998 20.5685 0001664 230.7476 134.6624 1.00273375 26774
UTC large
Height (km)
Speed (km/s)
/
Latitude / Longitude
Inclination (degrees)
Orbital Period (minutes)
Azimuth
Elevation
Range (km)
Doppler Factor

Next 0 passes for location: London (51.5072 / 0.1276)

Sorry there are no passes over London.